Location: *
(43.9905°S, 176.4941°W)
Time: 05:08:24
(UTC+00:00)

SPOT 3 Rocket - Pass Details

Date: 08 December 2019
Orbit: 779 x 795 km, 98.8° (Epoch: 25 January)

Event Time Altitude Azimuth Distance (km) Brightness Sun altitude
Rises 08:18:45 0° 162° (SSE) 3,329 7.2 -9.3°
Reaches altitude 10° 08:21:09 10° 157° (SSE) 2,394 6.4 -9.6°
Maximum altitude 08:26:22 55° 79° (E) 959 3.7 -10.2°
Drops below altitude 10° 08:31:30 10° 1° (N) 2,369 5.6 -10.9°
Enters shadow 08:32:52 - 358° (N) 2,900 6.1 -11.0°
